sat.trackr.live / text

‹ back to catalog

BSAT-4B

NORAD 46112 · 2020-056A

PAYLOAD ACTIVE UNKNOWN

§ Identity

Operator
Country
JPN
Launch date
2020-08-15
Launch site
FRGUI
Launch vehicle
Mass (kg)
RCS (m²)

Purposes: comms

External: N2YO · Heavens-Above · Gunter

§ Orbital elements

Epoch: 2026-05-25T00:50:36.291264Z

Period
1,436.12 min
Inclination
0.0373°
Eccentricity
0.0003815
Mean motion
1.00270280 rev/d
Perigee alt
35,770.9 km
Apogee alt
35,803.1 km
Semi-major
42,165.2 km
B*
0.0000e+0
RAAN
191.9382°
Arg perigee
274.1250°
Mean anomaly
259.0425°
Rev number
2,115

§ Raw data

BSAT-4B1 46112U 20056A   26145.03514226 -.00000353  00000+0  00000+0 0  99982 46112   0.0373 191.9382 0003815 274.1250 259.0425  1.00270280 21156

JSON: /api/v1/satellites/46112 · /tle

For live sub-satellite position, see the globe view (requires WebGL).

§ Visibility from observer

Set your observer location to see the next 7 days of passes ≥ 10°. The values pass through the URL so the page stays shareable.

No JS? Fill the form by hand. The geolocation button needs JavaScript.